Orbital Elements at Epoch 2459000.5 (2020-May-31.0) TDB
Reference: JPL 21 (heliocentric ecliptic J2000)
Element | Value | Uncertainty (1-sigma) | Units |
e | .252118010779033 | 6.1665e-08 | |
a | 3.157915314598021 | 2.2445e-08 | au |
q | 2.361747987272923 | 1.9797e-07 | au |
i | 11.02200585244121 | 4.2553e-06 | deg |
node | 110.3692839340905 | 3.238e-05 | deg |
peri | 266.3861539773649 | 3.3627e-05 | deg |
M | 47.94494846555605 | 7.9193e-06 | deg |
tp | 2458727.514549111697 (2019-Sep-01.01454911) | 4.5901e-05 | TDB |
period | 2049.741744751076 5.61 | 2.1853e-05 5.983e-08 | d yr |
n | .1756318818806703 | 1.8725e-09 | deg/d |
Q | 3.954082641923118 | 2.8104e-08 | au |
|
| | Orbit Determination Parameters
Additional Information
|